Location: Spondin
(51.8528°N, 111.6118°W)
Time: 17:13:08
(UTC+00:00)

Vanguard 2 Rocket - Pass Details

Date: 01 June 2022
Orbit: 553 x 3323 km, 32.9° (Epoch: 02 July)

Event Time Altitude Azimuth Distance (km) Brightness Sun altitude
Rises 21:02:28 0° 249° (WSW) 7,247 12.0 54.8°
Reaches altitude 10° 21:07:48 10° 243° (WSW) 6,280 11.9 54.2°
Maximum altitude 21:25:10 39° 184° (S) 3,911 11.2 52.3°
Drops below altitude 10° 21:38:23 10° 123° (ESE) 4,833 10.6 50.7°
Sets 21:41:51 0° 115° (ESE) 5,494 10.7 50.2°
